Content
SEND FEEDBACK

Daily
Averages
Monthly
Summary
Canada

QUEBEC CITY, QUEBEC


Home > North America > Canada > Quebec
Elevation: 239 feet     Latitude: 46 48N     Longitude: 071 23W

WEATHER
 
SELECT A DAY
Number of Records: 191,996;   Date Range: 6/30/96 - 7/23/14
 
SHARE

PRINT THIS DATA

[ ← Previous Day ]
WEATHER ALMANAC - FEBRUARY 22, 2013
[ Next Day → ]
[ °C ]   °F
Weather ElementAverageHighLow
Temperature20.3 °F28.4 °F (1:00 pm)1 °F (7:00 am)
Dewpoint14.8 °F21.2 °F (11:00 am)-2 °F (7:00 am)
Humidity82.2 %93 % (9:00 am)67 % (1:00 pm)
Barometer28.57 in30.49 in (9:00 am) (7:00 pm)
Wind Speed6.5 mph13.8 mph (1:00 am)
Wind Gust18.4 mph (9:40 pm)
Weather ElementAverage
Visibility15.2 mi
Wind DirectionESE (109.1 °)

Weather ElementTotal
Precipitation---
Heating Degree Days50.3 (Base 65)
Averaged from 33 records on February 22, 2013
WEATHER CONDITIONS BREAKOUT
WIND DIRECTION BREAKOUT
WEATHER BY HOUR - FEBRUARY 22, 2013
[ °C ]   °F
Local TimeTemperatureDewpointHumidityBarometerVisibilityWind DirectionWind SpeedGust SpeedPrecipitationEventsConditions
1:00 AM17.0 °F15.0 °F89 %30.36 inWSW (240°)5.8 mph
1:00 AM17.6 °F12.2 °F79 %30.36 in15.0 miSW (230°)13.8 mphMostly Cloudy
2:00 AM15.8 °F12.2 °F86 %30.39 in15.0 miWSW (250°)13.8 mphMostly Cloudy
3:00 AM15.8 °F12.2 °F86 %30.39 in15.0 miSW (230°)4.6 mphMostly Cloudy
4:00 AM16.0 °F14.0 °F89 %30.40 inESE (110°)3.5 mph
4:00 AM15.8 °F12.2 °F86 %30.40 in15.0 miESE (110°)2.3 mphMostly Cloudy
5:00 AM14.0 °F10.4 °F86 %30.40 in15.0 miCalmMostly Cloudy
6:00 AM10.4 °F5.0 °F79 %30.40 in15.0 miCalmPartly Cloudy
7:00 AM8.6 °F5.0 °F85 %30.44 in10.0 miCalmMostly Cloudy
7:00 AM1.0 °F-2.0 °F82 %30.44 inWest (280°)3.5 mph
8:00 AM14.0 °F10.4 °F86 %30.47 in12.0 miWSW (250°)3.5 mphMostly Cloudy
9:00 AM17.6 °F15.8 °F93 %30.49 in12.0 miWest (260°)3.5 mphMostly Cloudy
10:00 AM19.0 °F17.0 °F88 %30.48 inWNW (290°)2.3 mph
10:00 AM23.0 °F19.4 °F86 %30.49 in15.0 miCalmPartly Cloudy
11:00 AM26.6 °F21.2 °F80 %30.47 in15.0 miEast (100°)4.6 mphPartly Cloudy
12:00 PM26.6 °F21.2 °F80 %30.45 in15.0 miEast (90°)6.9 mphPartly Cloudy
1:00 PM28.4 °F21.2 °F74 %30.43 in15.0 miEast (90°)11.5 mphMostly Cloudy
1:00 PM28.0 °F21.0 °F67 %30.41 inEast (80°)6.9 mph
2:00 PM26.6 °F21.2 °F80 %30.42 in15.0 miENE (70°)8.1 mphMostly Cloudy
3:00 PM26.6 °F21.2 °F80 %30.42 in20.0 miENE (70°)8.1 mphMostly Cloudy
4:00 PM26.0 °F20.0 °F69 %30.41 inEast (90°)5.8 mph
4:00 PM26.6 °F19.4 °F74 %30.42 in20.0 miENE (70°)8.1 mphScattered Clouds
5:00 PM24.8 °F19.4 °F80 %30.40 in20.0 miENE (60°)8.1 mphMostly Cloudy
6:00 PM23.0 °F17.6 °F80 %30.39 in15.0 miENE (60°)6.9 mphScattered Clouds
7:00 PM21.2 °F17.6 °F86 %30.39 in15.0 miNE (50°)8.1 mphMostly Cloudy
7:00 PM22.0 °F19.0 °F84 %30.38 inENE (70°)5.8 mph
8:00 PM21.2 °F17.6 °F86 %30.38 in15.0 miENE (60°)9.2 mphScattered Clouds
9:00 PM21.2 °F17.6 °F86 %30.38 in15.0 miENE (60°)9.2 mphScattered Clouds
9:40 PM23.0 °F0.0 °F15.0 miENE (60°)12.7 mph18.4 mphMostly Cloudy
10:00 PM24.0 °F20.0 °F81 %30.37 inENE (70°)10.4 mph
10:00 PM23.0 °F17.6 °F80 %30.38 in15.0 miENE (60°)11.5 mph17.3 mphMostly Cloudy
10:39 PM23.0 °F0.0 °F15.0 miENE (70°)6.9 mphMostly Cloudy
11:00 PM23.0 °F17.6 °F80 %30.36 in15.0 miENE (70°)8.1 mphMostly Cloudy
Hourly data recorded from CYQB, located miles away from Quebec City, Quebec







STORIES FROM OUR PARTNERS